OBJECT G

基本信息
目录编号:
66999
目录名称:
OBJECT G
国际标识:
2025-292G
轨道中心:
EARTH
物体状态:
在轨
发射日期:
2025-12-10 UTC
国别:
中国 (CN)
轨道信息
数据来源: 国际轨道数据
星历时间: 2026-09-05T12:41:52+0800
半长轴: 6922.718km
偏心率: 0.0016669
轨道倾角: 97.630°
近地点辐角: 99.372°
升交点赤经: 323.486°
平近点角: 260.940°
近地点: 533.041km
远地点: 556.121km
周期: 95.538分钟
每日圈数: 15.072589
详细信息
发射场:
JSC
轨道高度:
LEO
数据来源:
AOE Working Group
参考系:
TEME
时间系统:
UTC
历元类型:
SGP4
2D轨道图
3D轨道图
轨道高度分析图
轨道倾角分析图
轨道综合分析图
查看轨道综合分析图